Home   Weather   Clarington   Past weeks

Flag for Canada Past Weather in Clarington, Ontario, Canada — Yesterday and Last 2 Weeks

Now
70 °F

Rain. Mostly cloudy.


Feels Like: 70 °F
Forecast: N/A
Wind: 13 mph from North

Location: Peterborough Airport

Current Time: Aug 30, 2016 at 6:45:51 PM

Latest Report: Aug 30, 2016 at 6:00 PM


Visibility: 9 mi

Pressure: 30.08 "Hg

Humidity: 78%

Dew Point: 63 °F

Location of ClaringtonLocation

Past Weather in Clarington — Graph

°F

Clarington Temperature Yesterday

Maximum temperature yesterday: 81 °F (at 3:00 PM)
Minimum temperature yesterday: 57 °F (at 11:00 PM)
Average temperature yesterday: 69 °F

High & Low Weather Summary for the Past Weeks

 TemperatureHumidityPressure
High86 °F (Aug 20, 3:00 PM)100% (Aug 15, 9:00 PM)30.26 "Hg (Aug 15, 9:00 PM)
Low45 °F (Aug 23, 6:00 AM)36% (Aug 22, 3:00 PM)29.58 "Hg (Aug 21, 5:59 AM)
Average69 °F79%30.03 "Hg
* Reported Aug 15 5:00 PM — Aug 30 5:52 PM, Clarington, Weather by CustomWeather, © 2016

Note: Actual official high and low records may vary slightly from our data, if they occured in-between our weather recording intervals... More about our weather records

Advertising

Clarington Weather History for the Previous 24 Hours

Scroll right to see more
 ConditionsComfort  
Time TempWeatherWind HumidityBarometerVisibility
5:52 PM
Tue, Aug 30
73 °FLight rain. Overcast.13 mph65%30.09 "Hg9 mi
5:00 PM81 °FMostly cloudy.6 mph45%30.04 "Hg9 mi
4:00 PM82 °FMore clouds than sun.8 mph51%30.05 "Hg9 mi
3:00 PM84 °FPartly sunny.5 mph43%30.05 "Hg9 mi
2:00 PM84 °FPartly sunny.9 mph43%30.06 "Hg9 mi
1:00 PM82 °FSunny.6 mph45%30.09 "Hg9 mi
12:00 PM81 °FSunny.7 mph48%30.11 "Hg9 mi
11:00 AM79 °FSunny.8 mph58%30.12 "Hg9 mi
10:00 AM73 °FSunny.6 mph65%30.14 "Hg9 mi
9:00 AM64 °FSunny.2 mph83%30.15 "Hg9 mi
8:00 AM57 °FSunny.No wind94%30.17 "Hg9 mi
7:00 AM52 °FClear.No wind94%30.17 "Hg9 mi
6:00 AM52 °FClear.No wind94%30.17 "Hg9 mi
5:00 AM52 °FClear.No wind94%30.17 "Hg9 mi
4:00 AM52 °FClear.No wind94%30.18 "Hg9 mi
3:00 AM52 °FClear.No wind100%30.19 "Hg9 mi
2:00 AM55 °FPassing clouds.No wind94%30.19 "Hg9 mi
1:00 AM54 °FPassing clouds.No wind100%30.20 "Hg9 mi
12:00 AM55 °FClear.2 mph94%30.20 "Hg9 mi
11:00 PM
Mon, Aug 29
57 °FClear.No wind94%30.20 "Hg9 mi
10:00 PM61 °FClear.2 mph88%30.21 "Hg9 mi
9:00 PM63 °FClear.No wind83%30.20 "Hg9 mi
8:00 PM68 °FSunny.5 mph69%30.19 "Hg9 mi
7:00 PM77 °FSunny.5 mph47%30.19 "Hg9 mi
6:00 PM79 °FSunny.3 mph42%30.19 "Hg9 mi
Weather by CustomWeather, © 2016

See weather overviewHow to use our weather pages